This is the latest recevied weather packets stored in our database for station/object PP5CFL-13. If no packets are shown the sender has not sent any weather packets the latest 10 day(s).
| Time | Temp. | Humidity | Pressure | Rain* | Wind** | Luminosity | Snow |
|---|---|---|---|---|---|---|---|
| 1788298658 | 22.22° C | 72% | 1016.1 hPa | - | - | - | - |
| 1788298358 | 22.78° C | 69% | 1015.9 hPa | - | - | - | - |
| 1788298058 | 23.33° C | 69% | 1015.9 hPa | - | - | - | - |
| 1788297758 | 22.78° C | 69% | 1015.8 hPa | - | - | - | - |
| 1788297458 | 22.78° C | 70% | 1015.9 hPa | - | - | - | - |
| 1788297158 | 22.78° C | 71% | 1015.9 hPa | - | - | - | - |
| 1788296858 | 22.78° C | 72% | 1015.7 hPa | - | - | - | - |
| 1788296558 | 22.22° C | 74% | 1015.7 hPa | - | - | - | - |
| 1788296258 | 21.67° C | 77% | 1015.7 hPa | - | - | - | - |
| 1788295958 | 21.11° C | 77% | 1015.4 hPa | - | - | - | - |
| 1788295658 | 21.11° C | 77% | 1015.5 hPa | - | - | - | - |
| 1788295358 | 21.11° C | 77% | 1015.5 hPa | - | - | - | - |
| 1788295058 | 21.11° C | 77% | 1015.3 hPa | - | - | - | - |
| 1788294758 | 21.11° C | 77% | 1015.2 hPa | - | - | - | - |
| 1788294458 | 21.67° C | 77% | 1015.3 hPa | - | - | - | - |
| 1788294158 | 21.11° C | 77% | 1015.1 hPa | - | - | - | - |
| 1788293858 | 21.67° C | 78% | 1015 hPa | - | - | - | - |
| 1788293558 | 21.67° C | 78% | 1015 hPa | - | - | - | - |
| 1788293258 | 21.67° C | 78% | 1014.9 hPa | - | - | - | - |
| 1788292958 | 21.67° C | 77% | 1014.8 hPa | - | - | - | - |
| 1788292658 | 21.67° C | 78% | 1014.6 hPa | - | - | - | - |
| 1788292358 | 21.67° C | 78% | 1014.5 hPa | - | - | - | - |
| 1788292058 | 21.67° C | 77% | 1014.5 hPa | - | - | - | - |
| 1788291758 | 21.67° C | 77% | 1014.4 hPa | - | - | - | - |
| 1788291458 | 21.67° C | 75% | 1014.2 hPa | - | - | - | - |
* Rain since midnight (hover to see other rain measurements)
** Current wind speed in m/s (hover to see current wind gust speed)